Torna al catalogo

NOAA 9

AttivoMeteoSSO
NORAD 15427·PAYLOAD·🇺🇸 United States

Lanciato Dec 12, 1984 da Vandenberg Space Force Base

Loading…

Prossimi Passaggi (prossime 24 ore)

TLE

AggiornatoSource: Space-Track

Epoca: Sep 14, 2026, 12:59 UTC

1 15427U 84123A   26257.54108887  .00000040  00000-0  43078-4 0  9990
2 15427  99.0950 286.2339 0015674  96.6000  66.2218 14.17087487156071

Traccia NOAA 9 in tempo reale con AllMySat

Download on the App Store